星链-36368(STARLINK-36368)

导读 | 豆包AI

STARLINK-36368是美国SpaceX公司于2026年2月21日发射的星链卫星,星链项目旨在构建全球卫星互联网星座,通过在低地球轨道部署大量卫星,为偏远地区、基础设施薄弱区域提供高速、低延迟的宽带互联网服务,该卫星加入后将进一步扩展星链网络的全球覆盖能力,提升网络服务的稳定性与接入容量,助力实现全球无缝互联的通信目标。

基本信息
目录编号:
67887
目录名称:
STARLINK-36368
国际标识:
2026-035J
轨道中心:
EARTH
卫星名称:
星链-36368
卫星全名:
星链-36368(STARLINK-36368)
卫星状态:
在轨 (已飞行93 天)
发射日期:
2026-02-21 UTC
国别 :
美国 (US)
星等 :
--
轨道信息
数据来源 国际轨道数据
星历时间: 2026-05-24T09:58:53+0800
1天前
查看轨道信息
半长轴: 6843.708km
偏心率: 0.0001444
轨道倾角: 97.288°
近地点辐角 94.393°
升交点赤经 77.646°
平近点角 265.748°
近地点: 464.582km
远地点: 466.56km
周期: 93.907分钟
每日圈数: 15.334358
详细信息
固有亮度:
5
最大亮度:
2.5
卫星平台:
Starlink V1.0
覆盖范围:
全球
运营商:
太空探索技术公司
运营商所在国:
美国
制造商(研发单位):
太空探索技术公司
制造商所在国:
美国
使用方式:
暂无
卫星简介
Starlink 计划是 SpaceX 推出的全球卫星互联网项目,通过发射低轨道卫星,为全球尤其是偏远地区提供高速、低延迟的互联网服务。自 2019 年起,Starlink 已部署数千颗卫星,旨在缩小全球数字鸿沟,推动互联网普及。该项目还为军事、航空等行业提供通信支持,带来广泛经济效益。
2D轨道图
3D轨道图
轨道高度分析图
轨道倾角分析图
轨道综合分析图
查看轨道综合分析图